Weather History for Kerrville, TX

Change the Weather History Date:

Saturday, May 11, 2013

  Actual Average (KHDO) Record (KHDO)
Temperature  
Mean Temperature 68 °F -  
Max Temperature 79 °F 85 °F 97 °F (2000)
Min Temperature 58 °F 63 °F 51 °F (1997)
Cooling Degree Days 2    
Growing Degree Days 18 (Base 50)    
Moisture  
Dew Point 55 °F    
Average Humidity 66    
Maximum Humidity 93    
Minimum Humidity 39    
Precipitation  
Precipitation 0.02 in - - ()
Sea Level Pressure  
Sea Level Pressure 30.13 in    
Wind  
Wind Speed 5 mph (North)    
Max Wind Speed 13 mph    
Max Gust Speed 18 mph    
Visibility 10 miles    
Events      
Averages and records for this station are not official NWS values.
T = Trace of Precipitation, MM = Missing Value Source: NWS Daily Summary

Daily Weather History Graph

Daily Weather History Graph

Search for Another Location

Airport:

Trip Planner

Search our weather history database for the weather conditions in past years. The results will help you decide how hot, cold, wet, or windy it might be!

Date:

Astronomy

May. 11, 2013 Rise Set
Actual Time 6:45 AM CDT 8:20 PM CDT
Civil Twilight 6:19 AM CDT 8:46 PM CDT
Nautical Twilight 5:48 AM CDT 9:17 PM CDT
Astronomical Twilight 5:15 AM CDT 9:50 PM CDT
Moon 7:56 AM CDT (5/11) 9:59 PM CDT (5/11)
Length of Visible Light 14h 26m
Length of Day
13h 34m
Waxing Crescent, 3% of the Moon is Illuminated
May 11
Waxing Crescent
May 17
First Quarter
May 24
Full
May 31
Last Quarter
Jun 8
New

Hourly Weather History & Observations

Time (CDT) Temp. Dew Point Humidity Pressure Visibility Wind Dir Wind Speed Gust Speed Precip Events Conditions
12:15 AM 61.2 °F 58.1 °F 90% 30.06 in 10.0 mi SW 3.5 mph - N/A   Clear
12:35 AM 61.2 °F 58.5 °F 91% 30.08 in 10.0 mi NW 3.5 mph - N/A   Clear
12:55 AM 61.2 °F 59.0 °F 93% 30.09 in 10.0 mi Calm Calm - N/A   Clear
1:15 AM 61.2 °F 59.0 °F 93% 30.09 in 10.0 mi Calm Calm - N/A   Clear
1:35 AM 61.2 °F 59.2 °F 93% 30.09 in 10.0 mi North 3.5 mph - N/A   Clear
1:55 AM 61.2 °F 59.0 °F 93% 30.09 in 10.0 mi North 4.6 mph - N/A   Clear
2:15 AM 61.2 °F 58.1 °F 90% 30.10 in 10.0 mi NNW 4.6 mph - N/A   Clear
2:35 AM 61.2 °F 58.3 °F 90% 30.11 in 10.0 mi NNW 3.5 mph - N/A   Clear
2:55 AM 61.2 °F 58.1 °F 90% 30.11 in 10.0 mi NW 4.6 mph - N/A   Clear
3:15 AM 61.2 °F 58.1 °F 90% 30.08 in 10.0 mi Calm Calm - N/A   Mostly Cloudy
3:35 AM 61.2 °F 58.5 °F 91% 30.09 in 10.0 mi NW 3.5 mph - N/A   Scattered Clouds
3:55 AM 61.2 °F 58.5 °F 91% 30.10 in 10.0 mi NNW 3.5 mph - N/A   Scattered Clouds
4:15 AM 61.2 °F 58.6 °F 91% 30.11 in 10.0 mi NNW 3.5 mph - N/A   Scattered Clouds
4:35 AM 61.2 °F 58.6 °F 91% 30.10 in 10.0 mi NW 3.5 mph - N/A   Scattered Clouds
4:55 AM 60.8 °F 58.6 °F 93% 30.12 in 10.0 mi NW 4.6 mph - N/A   Clear
5:35 AM 59.5 °F 57.6 °F 93% 30.11 in 10.0 mi North 4.6 mph - N/A   Clear
5:55 AM 59.2 °F 57.2 °F 93% 30.10 in 10.0 mi NNW 6.9 mph - N/A   Scattered Clouds
6:15 AM 59.0 °F 56.7 °F 92% 30.10 in 10.0 mi NW 4.6 mph - N/A   Scattered Clouds
6:35 AM 58.6 °F 56.5 °F 93% 30.08 in 10.0 mi NNW 6.9 mph - N/A   Clear
6:55 AM 58.6 °F 56.3 °F 92% 30.10 in 10.0 mi NW 6.9 mph - N/A   Clear
7:15 AM 58.6 °F 55.9 °F 91% 30.10 in 10.0 mi NNW 4.6 mph - N/A   Clear
7:35 AM 59.4 °F 56.5 °F 90% 30.10 in 10.0 mi NNW 3.5 mph - N/A   Scattered Clouds
7:55 AM 61.2 °F 57.4 °F 87% 30.12 in 10.0 mi NNW 5.8 mph - N/A   Clear
8:15 AM 62.6 °F 57.6 °F 84% 30.12 in 10.0 mi North 6.9 mph - N/A   Clear
8:35 AM 63.9 °F 57.0 °F 78% 30.13 in 10.0 mi North 6.9 mph - N/A   Clear
8:55 AM 64.8 °F 56.8 °F 75% 30.14 in 10.0 mi North 6.9 mph - N/A   Clear
9:15 AM 64.6 °F 56.5 °F 75% 30.15 in 10.0 mi North 3.5 mph - N/A   Clear
9:35 AM 64.8 °F 56.7 °F 75% 30.15 in 10.0 mi North 5.8 mph - N/A   Clear
9:55 AM 64.9 °F 56.5 °F 74% 30.16 in 10.0 mi NNE 6.9 mph - N/A   Clear
10:15 AM 66.2 °F 57.4 °F 73% 30.16 in 10.0 mi NNE 4.6 mph - N/A   Clear
10:35 AM 67.5 °F 57.2 °F 70% 30.16 in 10.0 mi North 6.9 mph - N/A   Clear
10:55 AM 68.7 °F 57.6 °F 67% 30.16 in 10.0 mi NNE 11.5 mph - N/A   Clear
11:15 AM 68.9 °F 57.9 °F 68% 30.16 in 10.0 mi North 10.4 mph - N/A   Clear
11:35 AM 68.9 °F 57.0 °F 66% 30.15 in 10.0 mi North 9.2 mph - N/A   Clear
11:55 AM 71.6 °F 57.2 °F 60% 30.15 in 10.0 mi North 12.7 mph 18.4 mph N/A   Clear
12:35 PM 73.6 °F 57.2 °F 56% 30.14 in 10.0 mi NE 11.5 mph 16.1 mph N/A   Scattered Clouds
12:55 PM 73.9 °F 57.4 °F 56% 30.15 in 10.0 mi North 11.5 mph - N/A   Mostly Cloudy
1:15 PM 75.6 °F 56.8 °F 52% 30.14 in 10.0 mi NNE 10.4 mph - N/A   Scattered Clouds
1:35 PM 76.5 °F 57.4 °F 52% 30.14 in 10.0 mi NE 9.2 mph 16.1 mph N/A   Scattered Clouds
1:55 PM 73.9 °F 56.5 °F 54% 30.14 in 10.0 mi North 10.4 mph 16.1 mph N/A   Mostly Cloudy
2:15 PM 76.5 °F 57.4 °F 52% 30.14 in 10.0 mi NNE 10.4 mph 17.3 mph N/A   Mostly Cloudy
2:35 PM 76.5 °F 56.7 °F 50% 30.14 in 10.0 mi North 9.2 mph 16.1 mph N/A   Mostly Cloudy
2:55 PM 76.3 °F 57.4 °F 52% 30.14 in 10.0 mi NE 10.4 mph - N/A   Mostly Cloudy
3:15 PM 76.3 °F 56.3 °F 50% 30.13 in 10.0 mi North 9.2 mph - N/A   Mostly Cloudy
3:35 PM 76.1 °F 56.3 °F 50% 30.13 in 10.0 mi NNE 9.2 mph - N/A   Overcast
3:55 PM 76.3 °F 55.4 °F 48% 30.12 in 10.0 mi NNE 9.2 mph 16.1 mph N/A   Overcast
4:15 PM 76.5 °F 55.2 °F 48% 30.12 in 10.0 mi NNE 12.7 mph 16.1 mph N/A   Overcast
4:35 PM 76.5 °F 52.3 °F 43% 30.11 in 10.0 mi NNE 10.4 mph - N/A   Mostly Cloudy
4:55 PM 77.0 °F 53.1 °F 43% 30.11 in 10.0 mi NNE 11.5 mph 17.3 mph N/A   Scattered Clouds
5:15 PM 77.7 °F 52.5 °F 41% 30.10 in 10.0 mi North 9.2 mph - N/A   Clear
5:35 PM 77.4 °F 50.7 °F 39% 30.10 in 10.0 mi NE 8.1 mph - N/A   Scattered Clouds
5:55 PM 76.5 °F 50.9 °F 41% 30.10 in 10.0 mi North 10.4 mph 17.3 mph N/A   Clear
6:15 PM 76.5 °F 51.4 °F 42% 30.10 in 10.0 mi NNE 9.2 mph - N/A   Clear
6:35 PM 76.5 °F 50.7 °F 40% 30.11 in 10.0 mi NNE 9.2 mph - N/A   Clear
6:55 PM 73.9 °F 47.7 °F 39% 30.12 in 10.0 mi NE 8.1 mph 16.1 mph N/A   Clear
7:15 PM 73.9 °F 48.0 °F 40% 30.12 in 10.0 mi NNE 6.9 mph - N/A   Clear
7:35 PM 72.7 °F 47.7 °F 41% 30.13 in 10.0 mi NNE 3.5 mph - N/A   Clear
7:55 PM 71.6 °F 48.6 °F 44% 30.15 in 10.0 mi NE 3.5 mph - N/A   Clear
8:15 PM 71.6 °F 49.3 °F 45% 30.15 in 10.0 mi NE 3.5 mph - N/A   Clear
8:35 PM 71.6 °F 50.4 °F 47% 30.16 in 10.0 mi NNE 3.5 mph - N/A   Clear
8:55 PM 68.9 °F 50.0 °F 51% 30.17 in 10.0 mi NNE 3.5 mph - N/A   Clear
9:15 PM 68.9 °F 51.6 °F 54% 30.17 in 10.0 mi NNE 3.5 mph - N/A   Clear
9:35 PM 68.5 °F 51.4 °F 54% 30.17 in 10.0 mi NNE 3.5 mph - N/A   Clear
9:55 PM 68.9 °F 49.1 °F 49% 30.17 in 10.0 mi NNE 6.9 mph - N/A   Clear
10:15 PM 68.0 °F 49.6 °F 52% 30.17 in 10.0 mi NNE 4.6 mph - N/A   Clear
10:35 PM 68.9 °F 48.7 °F 49% 30.17 in 10.0 mi NNE 5.8 mph - N/A   Clear
10:55 PM 67.5 °F 48.2 °F 50% 30.19 in 10.0 mi NE 5.8 mph - N/A   Clear
11:15 PM 68.5 °F 48.4 °F 49% 30.19 in 10.0 mi NNE 6.9 mph - N/A   Clear
11:35 PM 66.2 °F 48.7 °F 53% 30.20 in 10.0 mi NNE 4.6 mph - N/A   Clear
11:55 PM 64.9 °F 49.1 °F 56% 30.21 in 10.0 mi NNE 4.6 mph - N/A   Clear